When you browse on this site, cookies collect data to enhance your experience and personalize the content and advertising you see.
Visit our Privacy Policy to learn more. By continuing to use the site, you agree to this use of cookies and data.
  • In Romania
  • List of Countries
  • For 7 days
  • Water Temperature
  • Satellite Maps
  • Weather Map
  • Weather Widgets
  • user-avatar
    Login

    Hourly Weather Pitsunda

    Today, 20 May, Monday

    Time Temperature Precipitation Wind Pressure Humidity
    00:00 +19°C° 0 mm 2 mps 759 mmHg 75%
    01:00 +20°C° 0 mm 1 mps 760 mmHg 75%
    02:00 +19°C° 0 mm 1 mps 760 mmHg 74%
    03:00 +19°C° 0 mm 1 mps 760 mmHg 74%
    04:00 +19°C° 0 mm 1 mps 760 mmHg 73%
    05:00 +20°C° 0 mm 1 mps 760 mmHg 73%
    06:00 +20°C° 0 mm 1 mps 760 mmHg 72%
    07:00 +21°C° 0 mm 1 mps 760 mmHg 71%
    08:00 +23°C° 0 mm 1 mps 761 mmHg 70%
    09:00 +25°C° 0 mm 1 mps 761 mmHg 68%
    10:00 +24°C° 0 mm 2 mps 761 mmHg 73%
    11:00 +24°C° 0 mm 2 mps 761 mmHg 77%
    12:00 +24°C° 0 mm 3 mps 761 mmHg 82%
    13:00 +24°C° 0 mm 3 mps 761 mmHg 82%
    14:00 +24°C° 0 mm 3 mps 761 mmHg 83%
    15:00 +23°C° 0 mm 4 mps 761 mmHg 83%
    16:00 +23°C° 0 mm 4 mps 761 mmHg 86%
    17:00 +22°C° 0 mm 4 mps 761 mmHg 88%
    18:00 +22°C° 0 mm 4 mps 761 mmHg 90%
    19:00 +21°C° 0 mm 3 mps 761 mmHg 92%
    20:00 +21°C° 0 mm 1 mps 761 mmHg 94%
    21:00 +18°C° 0 mm 0 mps 761 mmHg 97%
    22:00 +20°C° 0 mm 1 mps 761 mmHg 96%
    23:00 +19°C° 0 mm 1 mps 761 mmHg 96%

    Tomorrow, 21 May, Tuesday

    Time Temperature Precipitation Wind Pressure Humidity
    00:00 +19°C° 0 mm 1 mps 761 mmHg 95%
    01:00 +19°C° 0 mm 1 mps 761 mmHg 94%
    02:00 +18°C° 0 mm 2 mps 761 mmHg 93%
    03:00 +18°C° 0 mm 3 mps 761 mmHg 93%
    04:00 +18°C° 0 mm 2 mps 761 mmHg 90%
    05:00 +18°C° 0 mm 2 mps 761 mmHg 87%
    06:00 +19°C° 0 mm 2 mps 761 mmHg 85%
    07:00 +21°C° 0 mm 2 mps 761 mmHg 78%
    08:00 +24°C° 0 mm 2 mps 761 mmHg 72%
    09:00 +26°C° 0 mm 2 mps 761 mmHg 65%
    10:00 +27°C° 0 mm 2 mps 761 mmHg 63%
    11:00 +28°C° 0 mm 2 mps 761 mmHg 62%
    12:00 +28°C° 0 mm 2 mps 761 mmHg 60%
    13:00 +28°C° 0 mm 3 mps 761 mmHg 61%
    14:00 +28°C° 0 mm 3 mps 761 mmHg 63%
    15:00 +28°C° 0 mm 3 mps 761 mmHg 64%
    16:00 +28°C° 0 mm 3 mps 761 mmHg 68%
    17:00 +27°C° 0 mm 2 mps 760 mmHg 73%
    18:00 +26°C° 0 mm 2 mps 760 mmHg 77%
    19:00 +25°C° 0 mm 2 mps 760 mmHg 81%
    20:00 +24°C° 0 mm 2 mps 760 mmHg 84%
    21:00 +21°C° 0 mm 2 mps 760 mmHg 88%
    22:00 +21°C° 0 mm 2 mps 760 mmHg 83%
    23:00 +21°C° 0 mm 2 mps 760 mmHg 77%

    Day after tomorrow, 22 May, Wednesday

    Time Temperature Precipitation Wind Pressure Humidity
    00:00 +21°C° 0 mm 2 mps 760 mmHg 72%
    01:00 +20°C° 0 mm 2 mps 760 mmHg 66%
    02:00 +20°C° 0 mm 2 mps 759 mmHg 59%
    03:00 +20°C° 0 mm 2 mps 759 mmHg 53%
    04:00 +20°C° 0.1 mm 3 mps 759 mmHg 58%
    05:00 +20°C° 0.1 mm 3 mps 759 mmHg 63%
    06:00 +20°C° 0.1 mm 4 mps 759 mmHg 67%
    07:00 +21°C° 0.1 mm 4 mps 759 mmHg 70%
    08:00 +21°C° 0.1 mm 4 mps 759 mmHg 73%
    09:00 +22°C° 0.1 mm 4 mps 759 mmHg 76%
    10:00 +23°C° 0.1 mm 4 mps 760 mmHg 70%
    11:00 +23°C° 0.1 mm 5 mps 760 mmHg 64%
    12:00 +25°C° 0.1 mm 5 mps 761 mmHg 58%
    13:00 +25°C° 0 mm 4 mps 761 mmHg 60%
    14:00 +24°C° 0 mm 3 mps 761 mmHg 62%
    15:00 +24°C° 0 mm 2 mps 761 mmHg 64%
    16:00 +24°C° 0 mm 2 mps 761 mmHg 67%
    17:00 +24°C° 0 mm 1 mps 762 mmHg 69%
    18:00 +23°C° 0 mm 1 mps 762 mmHg 71%
    19:00 +22°C° 0 mm 1 mps 762 mmHg 73%
    20:00 +20°C° 0 mm 2 mps 762 mmHg 76%
    21:00 +18°C° 0 mm 2 mps 762 mmHg 78%
    22:00 +18°C° 0 mm 2 mps 762 mmHg 74%
    23:00 +19°C° 0 mm 1 mps 762 mmHg 71%

    23 May, Thursday

    Time Temperature Precipitation Wind Pressure Humidity
    00:00 +19°C° 0 mm 1 mps 762 mmHg 67%
    01:00 +18°C° 0 mm 2 mps 762 mmHg 69%
    02:00 +17°C° 0 mm 2 mps 762 mmHg 71%
    03:00 +17°C° 0 mm 3 mps 762 mmHg 74%
    04:00 +17°C° 0 mm 3 mps 762 mmHg 72%
    05:00 +17°C° 0 mm 4 mps 762 mmHg 71%
    06:00 +17°C° 0 mm 4 mps 762 mmHg 70%
    07:00 +19°C° 0 mm 4 mps 762 mmHg 64%
    08:00 +21°C° 0 mm 4 mps 761 mmHg 59%
    09:00 +23°C° 0 mm 4 mps 761 mmHg 54%
    10:00 +25°C° 0 mm 3 mps 761 mmHg 53%
    11:00 +26°C° 0 mm 3 mps 761 mmHg 53%
    12:00 +26°C° 0 mm 3 mps 761 mmHg 53%
    13:00 +26°C° 0 mm 3 mps 761 mmHg 53%
    14:00 +26°C° 0 mm 3 mps 761 mmHg 54%
    15:00 +26°C° 0 mm 2 mps 760 mmHg 55%
    16:00 +25°C° 0 mm 2 mps 760 mmHg 59%
    17:00 +24°C° 0 mm 3 mps 760 mmHg 64%
    18:00 +24°C° 0 mm 3 mps 760 mmHg 68%
    19:00 +21°C° 0 mm 3 mps 761 mmHg 72%
    20:00 +19°C° 0 mm 2 mps 761 mmHg 75%
    21:00 +18°C° 0 mm 2 mps 761 mmHg 79%
    22:00 +17°C° 0 mm 3 mps 761 mmHg 72%
    23:00 +17°C° 0 mm 3 mps 761 mmHg 64%

    24 May, Friday

    Time Temperature Precipitation Wind Pressure Humidity
    00:00 +17°C° 0 mm 3 mps 761 mmHg 57%
    01:00 +17°C° 0 mm 3 mps 761 mmHg 54%
    02:00 +17°C° 0 mm 3 mps 760 mmHg 50%
    03:00 +17°C° 0 mm 4 mps 760 mmHg 47%
    04:00 +17°C° 0 mm 4 mps 760 mmHg 47%
    05:00 +17°C° 0 mm 4 mps 760 mmHg 48%
    06:00 +18°C° 0 mm 4 mps 760 mmHg 48%
    07:00 +20°C° 0 mm 4 mps 760 mmHg 44%
    08:00 +22°C° 0 mm 4 mps 760 mmHg 41%
    09:00 +26°C° 0 mm 3 mps 759 mmHg 37%
    10:00 +26°C° 0 mm 4 mps 759 mmHg 36%
    11:00 +27°C° 0 mm 4 mps 759 mmHg 35%
    12:00 +28°C° 0 mm 4 mps 759 mmHg 34%
    13:00 +29°C° 0 mm 4 mps 758 mmHg 33%
    14:00 +29°C° 0 mm 4 mps 758 mmHg 33%
    15:00 +29°C° 0 mm 4 mps 757 mmHg 33%
    16:00 +28°C° 0 mm 4 mps 757 mmHg 38%
    17:00 +28°C° 0 mm 4 mps 757 mmHg 42%
    18:00 +27°C° 0 mm 4 mps 757 mmHg 47%
    19:00 +26°C° 0 mm 5 mps 757 mmHg 42%
    20:00 +24°C° 0 mm 6 mps 757 mmHg 37%
    21:00 +23°C° 0 mm 7 mps 757 mmHg 31%
    22:00 +23°C° 0 mm 7 mps 756 mmHg 36%
    23:00 +23°C° 0 mm 7 mps 755 mmHg 41%

    25 May, Saturday

    Time Temperature Precipitation Wind Pressure Humidity
    00:00 +22°C° 0 mm 7 mps 755 mmHg 45%
    01:00 +23°C° 0 mm 7 mps 754 mmHg 46%
    02:00 +23°C° 0 mm 8 mps 754 mmHg 47%
    03:00 +23°C° 0 mm 8 mps 753 mmHg 48%
    04:00 +23°C° 0.1 mm 8 mps 753 mmHg 52%
    05:00 +23°C° 0.1 mm 8 mps 752 mmHg 56%
    06:00 +23°C° 0.1 mm 9 mps 752 mmHg 60%
    07:00 +27°C° 0.1 mm 9 mps 751 mmHg 52%
    08:00 +29°C° 0.1 mm 9 mps 751 mmHg 43%
    09:00 +33°C° 0.1 mm 9 mps 751 mmHg 34%
    10:00 +34°C° 0 mm 8 mps 751 mmHg 32%
    11:00 +37°C° 0 mm 8 mps 751 mmHg 29%
    12:00 +38°C° 0 mm 7 mps 751 mmHg 26%
    13:00 +34°C° 0 mm 7 mps 752 mmHg 39%
    14:00 +32°C° 0 mm 7 mps 753 mmHg 52%
    15:00 +29°C° 0 mm 7 mps 753 mmHg 65%
    16:00 +28°C° 0.5 mm 6 mps 754 mmHg 68%
    17:00 +28°C° 0.5 mm 5 mps 755 mmHg 71%
    18:00 +27°C° 0.5 mm 4 mps 756 mmHg 74%
    19:00 +26°C° 0.4 mm 4 mps 757 mmHg 79%
    20:00 +23°C° 0.4 mm 4 mps 758 mmHg 84%
    21:00 +21°C° 0.4 mm 3 mps 758 mmHg 89%
    22:00 +21°C° 0.2 mm 3 mps 759 mmHg 91%
    23:00 +20°C° 0.2 mm 2 mps 759 mmHg 93%
    Show more